CW9803 Weather Reports


Display with metric or nautical units.
time (UTC)temp
F
wind
direction
speed
MPH
gust
MPH
rain 1hr
in
rain 24hr
in
rain mn
in
humidity
%
barometer
mb
20260505152910 58 98 1.0 1.0 0.00 0.00 0.00 67 1009.7
20260505152402 57 132 0.0 0.0 0.00 0.00 0.00 69 1009.7
20260505151901 55 136 0.0 0.0 0.00 0.00 0.00 72 1009.8
20260505151358 54 137 0.0 0.0 0.00 0.00 0.00 76 1009.6
20260505150855 53 127 1.0 1.0 0.00 0.00 0.00 77 1009.4
20260505150352 52 133 1.0 1.0 0.00 0.00 0.00 80 1009.6
20260505140311 48 114 0.0 0.0 0.00 0.00 0.00 86 1009.1
20260505130234 41 119 0.0 0.0 0.00 0.00 0.00 95 1008.5
20260505124725 40 143 0.0 0.0 0.00 0.00 0.00 95 1008.2
20260505124222 40 143 0.0 0.0 0.00 0.00 0.00 95 1008.4
20260505123717 40 143 0.0 0.0 0.00 0.00 0.00 95 1008.5
20260505123214 40 143 0.0 0.0 0.00 0.00 0.00 95 1008.3
20260505122711 40 143 0.0 0.0 0.00 0.00 0.00 95 1008.4
20260505122208 40 143 0.0 0.0 0.00 0.00 0.00 95 1008.3
20260505121705 40 143 0.0 0.0 0.00 0.00 0.00 95 1008.1
20260505121201 41 111 0.0 0.0 0.00 0.00 0.00 95 1008.2
20260505120657 41 111 0.0 0.0 0.00 0.00 0.00 95 1008.3
20260505120153 41 113 0.0 0.0 0.00 0.00 0.00 95 1008.2
20260505115647 41 113 0.0 0.0 0.00 0.00 0.00 95 1007.9
20260505115145 41 113 0.0 0.0 0.00 0.00 0.00 95 1008.1
20260505114642 41 113 0.0 0.0 0.00 0.00 0.00 95 1008.2
20260505114138 41 113 0.0 0.0 0.00 0.00 0.00 95 1008.2
20260505113635 42 113 0.0 0.0 0.00 0.00 0.00 95 1008.3
20260505113131 42 113 0.0 0.0 0.00 0.00 0.00 95 1008.1
20260505112628 42 113 0.0 0.0 0.00 0.00 0.00 94 1008.3
20260505112126 42 113 0.0 0.0 0.00 0.00 0.00 94 1008.1
20260505111625 42 113 0.0 0.0 0.00 0.00 0.00 94 1008.0
20260505111122 41 111 0.0 0.0 0.00 0.00 0.00 94 1008.0
20260505110618 42 111 0.0 0.0 0.00 0.00 0.00 94 1008.0
20260505110115 42 111 0.0 0.0 0.00 0.00 0.00 94 1007.9
20260505102051 43 110 0.0 0.0 0.00 0.00 0.00 92 1007.4
20260505101549 43 110 0.0 0.0 0.00 0.00 0.00 91 1007.4
20260505101045 43 108 0.0 1.0 0.00 0.00 0.00 91 1007.3
20260505100542 44 106 0.0 0.0 0.00 0.00 0.00 91 1007.5
20260505100039 43 134 0.0 0.0 0.00 0.00 0.00 91 1007.5
20260505095535 44 145 0.0 0.0 0.00 0.00 0.00 90 1007.7
20260505095031 44 156 0.0 0.0 0.00 0.00 0.00 90 1007.7
20260505094528 44 118 0.0 0.0 0.00 0.00 0.00 91 1007.4
20260505094024 44 114 0.0 0.0 0.00 0.00 0.00 91 1007.2
20260505093521 44 113 0.0 0.0 0.00 0.00 0.00 91 1007.4
20260505093018 44 138 0.0 0.0 0.00 0.00 0.00 90 1007.3
20260505092516 44 141 0.0 0.0 0.00 0.00 0.00 90 1007.4
20260505092014 45 151 0.0 0.0 0.00 0.00 0.00 89 1007.3
20260505091511 45 159 0.0 0.0 0.00 0.00 0.00 89 1007.2
20260505091009 45 154 0.0 0.0 0.00 0.00 0.00 90 1007.3
20260505090506 45 120 0.0 0.0 0.00 0.00 0.00 90 1007.4
20260505090004 45 115 0.0 0.0 0.00 0.00 0.00 90 1007.3
20260505085502 45 115 0.0 0.0 0.00 0.00 0.00 90 1007.3
20260505085000 45 113 0.0 0.0 0.00 0.00 0.00 90 1007.2
20260505084458 45 116 0.0 0.0 0.00 0.00 0.00 90 1007.2
20260505083955 45 149 0.0 0.0 0.00 0.00 0.00 90 1007.2
20260505083452 46 151 0.0 0.0 0.00 0.00 0.00 90 1007.4
20260505082948 46 130 0.0 0.0 0.00 0.00 0.00 90 1007.4
20260505082444 46 130 0.0 0.0 0.00 0.00 0.00 90 1007.4
20260505081942 46 130 0.0 0.0 0.00 0.00 0.00 90 1007.3
20260505081438 46 130 0.0 0.0 0.00 0.00 0.00 90 1007.3
20260505080934 46 130 0.0 0.0 0.00 0.00 0.00 89 1007.3
20260505080431 46 130 0.0 0.0 0.00 0.00 0.00 89 1007.1
20260505075926 47 131 0.0 0.0 0.00 0.00 0.00 89 1007.2
20260505075423 47 131 0.0 0.0 0.00 0.00 0.00 89 1007.0
20260505074921 47 131 0.0 0.0 0.00 0.00 0.00 89 1007.2
20260505074418 47 130 0.0 0.0 0.00 0.00 0.00 89 1007.1
20260505073915 47 131 0.0 0.0 0.00 0.00 0.00 89 1007.3
20260505073413 47 131 0.0 0.0 0.00 0.00 0.00 88 1007.2
20260505072910 48 131 0.0 0.0 0.00 0.00 0.00 88 1007.2
20260505072406 47 131 0.0 0.0 0.00 0.00 0.00 87 1007.0
20260505071902 48 130 0.0 0.0 0.00 0.00 0.00 86 1007.1
20260505071358 48 130 0.0 0.0 0.00 0.00 0.00 85 1006.9
20260505070857 48 129 0.0 0.0 0.00 0.00 0.00 84 1007.0
20260505070353 49 120 0.0 0.0 0.00 0.00 0.00 84 1007.1
20260505065848 49 108 0.0 0.0 0.00 0.00 0.00 83 1006.9
20260505065345 49 114 0.0 0.0 0.00 0.00 0.00 83 1007.0
20260505064842 49 118 0.0 0.0 0.00 0.00 0.00 83 1006.9
20260505064339 50 147 0.0 0.0 0.00 0.00 0.00 82 1006.8
20260505063837 50 133 0.0 0.0 0.00 0.00 0.00 82 1006.7
20260505063333 50 118 0.0 0.0 0.00 0.00 0.00 81 1006.6
20260505062830 50 111 0.0 0.0 0.00 0.00 0.00 80 1006.7
20260505062327 51 93 0.0 0.0 0.00 0.00 0.00 79 1006.8
20260505061824 52 132 0.0 0.0 0.00 0.00 0.00 78 1006.6
20260505061322 52 150 0.0 1.0 0.00 0.00 0.00 78 1006.8
20260505060819 51 170 1.0 1.0 0.00 0.00 0.00 78 1006.8
20260505060316 52 143 1.0 1.0 0.00 0.00 0.00 78 1006.6
20260505055812 52 112 2.0 3.0 0.00 0.00 0.00 77 1006.5
20260505055308 53 157 0.0 1.0 0.00 0.00 0.00 75 1006.4
20260505054806 53 160 0.0 0.0 0.00 0.00 0.00 74 1006.6
20260505054303 53 166 1.0 1.0 0.00 0.00 0.00 73 1006.6
20260505053801 53 157 0.0 0.0 0.00 0.00 0.00 74 1006.8
20260505053258 53 155 0.0 0.0 0.00 0.00 0.00 75 1006.7
20260505052754 53 156 0.0 0.0 0.00 0.00 0.00 74 1006.6
20260505052252 54 161 0.0 0.0 0.00 0.00 0.00 74 1006.5
20260505051748 54 115 0.0 0.0 0.00 0.00 0.00 73 1006.5
20260505051246 54 114 0.0 0.0 0.00 0.00 0.00 72 1006.5
20260505050744 54 113 0.0 0.0 0.00 0.00 0.00 72 1006.5
20260505050242 55 121 0.0 0.0 0.00 0.00 0.00 71 1006.6
20260505041706 59 98 1.0 1.0 0.00 0.00 0.00 60 1006.1
20260505041204 59 59 0.0 0.0 0.00 0.00 0.00 61 1006.2
20260505040701 60 115 0.0 0.0 0.00 0.00 0.00 58 1006.4
20260505040158 61 136 0.0 0.0 0.00 0.00 0.00 56 1006.2
20260505035654 61 203 1.0 1.0 0.00 0.00 0.00 55 1006.2
20260505035150 62 194 2.0 2.0 0.00 0.00 0.00 54 1006.1
20260505034647 63 168 0.0 0.0 0.00 0.00 0.00 53 1006.0
20260505034144 64 116 0.0 0.0 0.00 0.00 0.00 50 1005.9
20260505033640 64 146 0.0 0.0 0.00 0.00 0.00 50 1005.9
20260505033139 65 114 0.0 0.0 0.00 0.00 0.00 47 1005.8
20260505032637 65 99 0.0 1.0 0.00 0.00 0.00 47 1005.8
20260505032133 65 67 1.0 2.0 0.00 0.00 0.00 46 1005.7
20260505031630 65 93 0.0 0.0 0.00 0.00 0.00 47 1005.7
20260505031126 65 115 0.0 0.0 0.00 0.00 0.00 47 1005.4
20260505030623 65 133 0.0 0.0 0.00 0.00 0.00 48 1005.5
20260505030119 66 103 1.0 1.0 0.00 0.00 0.00 47 1005.3
20260505025615 66 151 0.0 0.0 0.00 0.00 0.00 46 1005.3
20260505025114 67 149 0.0 0.0 0.00 0.00 0.00 45 1005.2
20260505024611 68 330 1.0 2.0 0.00 0.00 0.00 43 1005.3
20260505024108 68 37 1.0 2.0 0.00 0.00 0.00 41 1005.3
20260505023605 68 132 1.0 2.0 0.00 0.00 0.00 41 1004.9
20260505023103 68 152 2.0 2.0 0.00 0.00 0.00 41 1005.2
20260505022600 70 66 1.0 1.0 0.00 0.00 0.00 40 1004.9
20260505022057 70 5 3.0 4.0 0.00 0.00 0.00 39 1005.3
20260505021554 71 317 3.0 3.0 0.00 0.00 0.00 38 1005.2
20260505021050 71 278 1.0 1.0 0.00 0.00 0.00 38 1005.2
20260505020550 72 175 1.0 1.0 0.00 0.00 0.00 38 1004.9
20260505020048 73 297 4.0 4.0 0.00 0.00 0.00 36 1005.1
20260505015544 73 212 2.0 3.0 0.00 0.00 0.00 35 1005.3
20260505015041 74 300 3.0 3.0 0.00 0.00 0.00 34 1005.1
20260505014538 74 305 3.0 3.0 0.00 0.00 0.00 33 1005.1
20260505014035 74 289 4.0 6.0 0.00 0.00 0.00 31 1004.8
20260505013532 75 280 3.0 4.0 0.00 0.00 0.00 32 1005.3
20260505013030 75 329 3.0 3.0 0.00 0.00 0.00 31 1005.1
20260505012528 75 318 3.0 4.0 0.00 0.00 0.00 31 1005.2
20260505012024 76 207 2.0 3.0 0.00 0.00 0.00 31 1005.1
20260505011520 76 158 1.0 2.0 0.00 0.00 0.00 31 1005.3
20260505011017 76 347 6.0 8.0 0.00 0.00 0.00 28 1005.1
20260505010512 76 132 4.0 6.0 0.00 0.00 0.00 29 1005.2
20260505010009 77 292 5.0 7.0 0.00 0.00 0.00 28 1005.1
20260505005506 77 213 6.0 8.0 0.00 0.00 0.00 29 1004.9
20260505005004 77 324 4.0 4.0 0.00 0.00 0.00 28 1005.2
20260505004501 77 234 3.0 4.0 0.00 0.00 0.00 26 1005.2
20260505003957 77 289 7.0 8.0 0.00 0.00 0.00 26 1005.2
20260505003454 77 284 6.0 10.0 0.00 0.00 0.00 25 1005.1
20260505002950 77 214 4.0 6.0 0.00 0.00 0.00 27 1004.9
20260505002446 78 313 7.0 9.0 0.00 0.00 0.00 26 1005.1
20260505001945 78 293 4.0 7.0 0.00 0.00 0.00 27 1005.2
20260505001442 78 291 4.0 6.0 0.00 0.00 0.00 25 1004.9
20260505000939 78 279 5.0 6.0 0.00 0.00 0.00 27 1005.1
20260505000437 78 331 5.0 6.0 0.00 0.00 0.00 27 1005.1
20260504235934 78 328 6.0 8.0 0.00 0.00 0.00 27 1004.9
20260504235431 78 275 2.0 3.0 0.00 0.00 0.00 27 1004.8
20260504234927 78 303 6.0 7.0 0.00 0.00 0.00 26 1004.9
20260504234425 77 294 5.0 9.0 0.00 0.00 0.00 25 1004.9
20260504233921 77 353 5.0 6.0 0.00 0.00 0.00 26 1004.9
20260504233417 78 245 5.0 7.0 0.00 0.00 0.00 26 1005.2
20260504232914 78 7 4.0 6.0 0.00 0.00 0.00 27 1004.9
20260504232411 78 323 6.0 9.0 0.00 0.00 0.00 24 1005.1
20260504231908 77 267 6.0 8.0 0.00 0.00 0.00 25 1005.1
20260504231404 78 165 4.0 4.0 0.00 0.00 0.00 26 1005.1
20260504230901 78 339 4.0 6.0 0.00 0.00 0.00 25 1005.5
20260504230358 78 231 6.0 7.0 0.00 0.00 0.00 26 1005.2
20260504225857 78 129 4.0 4.0 0.00 0.00 0.00 27 1005.2
20260504225353 79 332 6.0 8.0 0.00 0.00 0.00 26 1005.2
20260504224850 78 154 2.0 3.0 0.00 0.00 0.00 26 1005.6
20260504224347 78 250 4.0 7.0 0.00 0.00 0.00 26 1005.3
20260504223844 79 287 6.0 8.0 0.00 0.00 0.00 25 1005.4
20260504223339 79 63 4.0 6.0 0.00 0.00 0.00 25 1005.4
20260504222836 78 190 5.0 7.0 0.00 0.00 0.00 27 1005.3
20260504222333 78 302 7.0 9.0 0.00 0.00 0.00 25 1005.3
20260504221831 78 324 5.0 6.0 0.00 0.00 0.00 25 1005.4
20260504221327 78 289 4.0 6.0 0.00 0.00 0.00 26 1005.5
20260504220825 78 288 5.0 7.0 0.00 0.00 0.00 24 1005.6
20260504220321 78 301 4.0 4.0 0.00 0.00 0.00 26 1005.6
20260504215819 78 280 9.0 11.0 0.00 0.00 0.00 26 1005.7
20260504215315 78 276 5.0 8.0 0.00 0.00 0.00 26 1005.8
20260504214811 78 340 4.0 4.0 0.00 0.00 0.00 25 1005.7
20260504214308 78 310 4.0 4.0 0.00 0.00 0.00 26 1005.8
20260504213805 78 286 10.0 14.0 0.00 0.00 0.00 23 1005.7
20260504213301 78 286 4.0 7.0 0.00 0.00 0.00 24 1005.7
20260504212758 78 319 4.0 4.0 0.00 0.00 0.00 27 1005.9
20260504212254 78 282 4.0 7.0 0.00 0.00 0.00 25 1005.8
20260504211752 78 285 4.0 6.0 0.00 0.00 0.00 26 1005.9
20260504211248 78 163 4.0 7.0 0.00 0.00 0.00 25 1005.8
20260504210746 78 321 9.0 14.0 0.00 0.00 0.00 27 1006.1
20260504210243 78 306 4.0 6.0 0.00 0.00 0.00 27 1006.0
20260504205739 79 303 3.0 6.0 0.00 0.00 0.00 26 1006.0
20260504205237 78 251 4.0 4.0 0.00 0.00 0.00 28 1005.9
20260504204735 78 29 4.0 6.0 0.00 0.00 0.00 29 1006.0
20260504204233 78 301 4.0 6.0 0.00 0.00 0.00 28 1005.9
20260504203732 78 314 3.0 4.0 0.00 0.00 0.00 29 1006.0
20260504203229 79 334 4.0 4.0 0.00 0.00 0.00 29 1006.0
20260504202729 78 254 4.0 7.0 0.00 0.00 0.00 30 1005.9
20260504202227 78 285 4.0 4.0 0.00 0.00 0.00 30 1006.1
20260504201724 79 322 6.0 8.0 0.00 0.00 0.00 29 1005.9
20260504201221 78 83 2.0 3.0 0.00 0.00 0.00 31 1005.8
20260504200719 78 301 9.0 10.0 0.00 0.00 0.00 30 1006.0
20260504200214 78 268 5.0 9.0 0.00 0.00 0.00 29 1005.8
20260504195711 78 311 7.0 10.0 0.00 0.00 0.00 28 1005.8
20260504195207 78 4 4.0 4.0 0.00 0.00 0.00 31 1006.1
20260504194704 78 289 5.0 8.0 0.00 0.00 0.00 27 1005.8
20260504194200 78 277 3.0 4.0 0.00 0.00 0.00 29 1005.9
20260504193656 78 340 8.0 10.0 0.00 0.00 0.00 30 1006.2
20260504193154 78 263 3.0 7.0 0.00 0.00 0.00 28 1005.8
20260504192652 78 188 1.0 2.0 0.00 0.00 0.00 36 1006.0
20260504192150 77 109 1.0 1.0 0.00 0.00 0.00 39 1006.4
20260504191648 77 116 2.0 2.0 0.00 0.00 0.00 41 1006.1
20260504191144 77 148 0.0 0.0 0.00 0.00 0.00 40 1006.1
20260504190640 75 129 0.0 1.0 0.00 0.00 0.00 42 1006.2
20260504190137 75 127 0.0 1.0 0.00 0.00 0.00 43 1006.5
20260504185633 75 133 2.0 3.0 0.00 0.00 0.00 44 1006.7
20260504185130 73 158 1.0 1.0 0.00 0.00 0.00 43 1006.4
20260504184626 73 143 1.0 1.0 0.00 0.00 0.00 45 1006.5
20260504184121 73 142 1.0 1.0 0.00 0.00 0.00 45 1006.5
20260504183619 72 152 4.0 4.0 0.00 0.00 0.00 47 1006.6
20260504183116 72 139 1.0 2.0 0.00 0.00 0.00 44 1006.7
20260504182614 71 158 3.0 3.0 0.00 0.00 0.00 45 1006.7
20260504182111 71 139 2.0 2.0 0.00 0.00 0.00 46 1006.8
20260504181608 71 103 2.0 2.0 0.00 0.00 0.00 44 1007.0
20260504181106 70 130 1.0 1.0 0.00 0.00 0.00 45 1006.8
20260504180605 71 152 3.0 3.0 0.00 0.00 0.00 45 1006.9
20260504180103 69 145 2.0 3.0 0.00 0.00 0.00 45 1007.0
20260504175600 69 130 2.0 2.0 0.00 0.00 0.00 46 1007.0
20260504175057 69 133 2.0 3.0 0.00 0.00 0.00 48 1007.0
20260504174555 69 147 2.0 3.0 0.00 0.00 0.00 47 1007.0
20260504174051 68 130 2.0 3.0 0.00 0.00 0.00 49 1006.9
20260504173548 67 124 3.0 3.0 0.00 0.00 0.00 49 1007.1
20260504173046 67 150 3.0 4.0 0.00 0.00 0.00 49 1007.0
20260504172541 67 124 2.0 3.0 0.00 0.00 0.00 52 1007.0
20260504172038 66 146 2.0 3.0 0.00 0.00 0.00 51 1007.2
20260504171535 65 122 3.0 3.0 0.00 0.00 0.00 52 1007.3
20260504171032 65 135 3.0 4.0 0.00 0.00 0.00 54 1007.2
20260504170527 64 174 3.0 4.0 0.00 0.00 0.00 55 1007.1
20260504160443 58 131 0.0 0.0 0.00 0.00 0.00 58 1008.1